Погода в Новой Збурьевке

Украина / Херсонская область     46°27′02″N   32°27′13″E
темп.,
°C
ветер,
м/с
пор.,
м/с
влажн.,
%
обл.,
%
осадки,
мм/ч
давл.,
гПа
погр.,
м
25 октября, пн
пн2500:00+6ссз510615 0.0 1030244
03:00+4с48745 0.0 1031184
06:00+3с35815 0.0 103285
09:00+5с346255 0.0 1033195
12:00+9ссв34425 0.0 10331431
15:00+11ссв33383 0.0 10321607
18:00+8ссв33444 0.0 103221
21:00+6в34510 0.0 103356
26 октября, вт
вт2600:00+5в34580 0.0 103361
03:00+4в33560 0.0 103337
06:00+3в34530 0.0 103251
09:00+5в45430 0.0 1032169
12:00+11вюв45370 0.0 1031975
15:00+13вюв44330 0.0 10291293
18:00+9вюв58490 0.0 1028157
21:00+6вюв410650 0.0 1029208
27 октября, ср
ср2700:00+4в46720 0.0 102898
03:00+4в35760 0.0 102768
06:00+3в46760 0.0 102785
09:00+6в46660 0.0 1027174
12:00+12вюв34470 0.0 1026898
15:00+14в33370 0.0 10251173
18:00+10вюв33490 0.0 102523
21:00+7вюв22670 0.0 102614
28 октября, чт
чт2800:00+6в22770 0.0 102715
03:00+5св22760 0.0 102712
06:00+4ссв23740 0.0 102715
09:00+6св34480 0.0 1028137
12:00+12св33301 0.0 1028585
15:00+14ссв2324100 0.0 1027931
18:00+10ссв2233100 0.0 102710
21:00+9ссв334057 0.0 102715
29 октября, пт
пт2900:00+7св224929 0.0 102712
03:00+6св225920 0.0 102713
06:00+6св227031 0.0 102715
09:00+8св236381 0.0 1028116
12:00+14всв33435 0.0 1028553
15:00+16св23365 0.0 1026911
18:00+12всв22454 0.0 102612
21:00+10в33553 0.0 102623